Time,TemperatureF,DewpointF,PressureIn,WindDirection,WindDirectionDegrees,WindSpeedMPH,WindSpeedGustMPH,Humidity,HourlyPrecipIn,Conditions,Clouds,dailyrainin,SolarRadiationWatts/m^2,SoftwareType,DateUTC
2013-06-01 00:08:00,52.2,46.9,30.19,NW,320,0.0,0.0,82,0.00,,,0.00,0,Wunderground v.1.15,2013-06-01 07:08:00,
2013-06-01 00:23:00,52.0,46.7,30.19,NW,319,0.0,0.0,82,0.00,,,0.00,0,Wunderground v.1.15,2013-06-01 07:23:00,
2013-06-01 00:29:00,52.0,46.7,30.19,NW,319,0.0,0.0,82,0.00,,,0.00,0,Wunderground v.1.15,2013-06-01 07:29:00,
2013-06-01 00:38:00,52.2,46.5,30.19,NW,319,0.0,0.0,81,0.00,,,0.00,0,Wunderground v.1.15,2013-06-01 07:38:00,
2013-06-01 00:48:00,52.3,46.6,30.19,NW,319,0.0,0.0,81,0.00,,,0.00,0,Wunderground v.1.15,2013-06-01 07:48:00,
2013-06-01 01:02:00,52.5,46.5,30.19,NW,319,0.0,0.0,80,0.00,,,0.00,0,Wunderground v.1.15,2013-06-01 08:02:00,
2013-06-01 01:08:00,52.6,46.6,30.19,NW,320,0.0,0.0,80,0.00,,,0.00,0,Wunderground v.1.15,2013-06-01 08:08:00,
2013-06-01 01:18:00,52.8,46.5,30.19,NW,319,0.0,3.0,79,0.00,,,0.00,0,Wunderground v.1.15,2013-06-01 08:18:00,
2013-06-01 01:28:00,52.8,46.1,30.19,NW,319,0.0,0.0,78,0.00,,,0.00,0,Wunderground v.1.15,2013-06-01 08:28:00,
2013-06-01 01:38:00,52.8,46.1,30.19,NW,319,0.0,0.0,78,0.00,,,0.00,0,Wunderground v.1.15,2013-06-01 08:38:00,
2013-06-01 01:48:00,52.8,46.1,30.18,NW,320,0.0,0.0,78,0.00,,,0.00,0,Wunderground v.1.15,2013-06-01 08:48:00,
2013-06-01 01:58:00,52.5,45.8,30.18,NW,319,0.0,0.0,78,0.00,,,0.00,0,Wunderground v.1.15,2013-06-01 08:58:00,
2013-06-01 02:08:00,52.6,45.9,30.18,NW,319,0.0,0.0,78,0.00,,,0.00,0,Wunderground v.1.15,2013-06-01 09:08:00,
2013-06-01 02:18:00,52.6,45.9,30.18,NW,319,0.0,0.0,78,0.00,,,0.00,0,Wunderground v.1.15,2013-06-01 09:18:00,
2013-06-01 02:28:00,52.6,45.9,30.18,NW,319,0.0,0.0,78,0.00,,,0.00,0,Wunderground v.1.15,2013-06-01 09:28:00,
2013-06-01 02:43:00,52.5,46.2,30.18,NW,319,0.0,0.0,79,0.00,,,0.00,0,Wunderground v.1.15,2013-06-01 09:43:00,
2013-06-01 02:53:00,52.3,46.0,30.18,NW,319,0.0,0.0,79,0.00,,,0.00,0,Wunderground v.1.15,2013-06-01 09:53:00,
2013-06-01 02:58:00,52.3,46.0,30.18,NW,319,0.0,0.0,79,0.00,,,0.00,0,Wunderground v.1.15,2013-06-01 09:58:00,
2013-06-01 03:13:00,52.3,46.0,30.18,NW,319,0.0,0.0,79,0.00,,,0.00,0,Wunderground v.1.15,2013-06-01 10:13:00,
2013-06-01 03:19:00,52.3,46.0,30.18,NW,319,0.0,0.0,79,0.00,,,0.00,0,Wunderground v.1.15,2013-06-01 10:19:00,
2013-06-01 03:28:00,52.3,45.6,30.18,NW,319,0.0,0.0,78,0.00,,,0.00,0,Wunderground v.1.15,2013-06-01 10:28:00,
2013-06-01 03:38:00,52.6,45.9,30.17,NW,319,0.0,0.0,78,0.00,,,0.00,0,Wunderground v.1.15,2013-06-01 10:38:00,
2013-06-01 03:52:00,52.9,45.2,30.17,NW,319,0.0,0.0,75,0.00,,,0.00,0,Wunderground v.1.15,2013-06-01 10:52:00,
2013-06-01 03:58:00,52.9,45.5,30.17,NW,319,0.0,0.0,76,0.00,,,0.00,0,Wunderground v.1.15,2013-06-01 10:58:00,
2013-06-01 04:08:00,52.9,45.2,30.17,NW,319,0.0,0.0,75,0.00,,,0.00,0,Wunderground v.1.15,2013-06-01 11:08:00,
2013-06-01 04:22:00,53.1,45.4,30.17,NW,319,0.0,0.0,75,0.00,,,0.00,0,Wunderground v.1.15,2013-06-01 11:22:00,
2013-06-01 04:28:00,53.1,45.0,30.17,NW,319,0.0,0.0,74,0.00,,,0.00,0,Wunderground v.1.15,2013-06-01 11:28:00,
2013-06-01 04:38:00,53.1,45.0,30.16,NW,319,0.0,0.0,74,0.00,,,0.00,0,Wunderground v.1.15,2013-06-01 11:38:00,
2013-06-01 04:48:00,53.1,45.0,30.16,NW,319,0.0,0.0,74,0.00,,,0.00,0,Wunderground v.1.15,2013-06-01 11:48:00,
2013-06-01 04:58:00,52.9,45.2,30.16,NW,320,0.0,0.0,75,0.00,,,0.00,0,Wunderground v.1.15,2013-06-01 11:58:00,
2013-06-01 05:08:00,52.9,45.5,30.16,NW,319,0.0,0.0,76,0.00,,,0.00,0,Wunderground v.1.15,2013-06-01 12:08:00,
2013-06-01 05:18:00,52.9,45.9,30.16,NW,319,0.0,0.0,77,0.00,,,0.00,0,Wunderground v.1.15,2013-06-01 12:18:00,
2013-06-01 05:28:00,52.9,45.9,30.16,NW,319,0.0,0.0,77,0.00,,,0.00,5,Wunderground v.1.15,2013-06-01 12:28:00,
2013-06-01 05:39:00,52.9,46.6,30.17,NW,320,0.0,0.0,79,0.00,,,0.00,7,Wunderground v.1.15,2013-06-01 12:39:00,
2013-06-01 05:49:00,52.8,47.1,30.16,NW,319,0.0,0.0,81,0.00,,,0.00,12,Wunderground v.1.15,2013-06-01 12:49:00,
2013-06-01 05:59:00,52.8,47.5,30.16,NW,319,0.0,0.0,82,0.00,,,0.00,28,Wunderground v.1.15,2013-06-01 12:59:00,
2013-06-01 06:13:00,52.6,47.3,30.16,NW,319,0.0,1.0,82,0.00,,,0.00,28,Wunderground v.1.15,2013-06-01 13:13:00,
2013-06-01 06:19:00,52.6,47.3,30.16,NW,319,0.0,1.0,82,0.00,,,0.00,42,Wunderground v.1.15,2013-06-01 13:19:00,
2013-06-01 06:32:00,52.6,47.3,30.16,NW,319,0.0,0.0,82,0.00,,,0.00,35,Wunderground v.1.15,2013-06-01 13:32:00,
2013-06-01 06:37:00,52.6,47.3,30.16,NW,319,0.0,0.0,82,0.00,,,0.00,39,Wunderground v.1.15,2013-06-01 13:37:00,
2013-06-01 06:48:00,52.8,47.5,30.15,NW,319,0.0,0.0,82,0.00,,,0.00,63,Wunderground v.1.15,2013-06-01 13:48:00,
2013-06-01 06:57:00,53.2,47.5,30.15,NW,319,0.0,0.0,81,0.00,,,0.00,128,Wunderground v.1.15,2013-06-01 13:57:00,
2013-06-01 07:08:00,53.6,47.2,30.16,NW,309,0.0,0.0,79,0.00,,,0.00,206,Wunderground v.1.15,2013-06-01 14:08:00,
2013-06-01 07:18:00,54.2,47.5,30.15,NW,319,0.0,0.0,78,0.00,,,0.00,123,Wunderground v.1.15,2013-06-01 14:18:00,
2013-06-01 07:28:00,54.8,47.4,30.15,NW,319,1.0,1.0,76,0.00,,,0.00,206,Wunderground v.1.15,2013-06-01 14:28:00,
2013-06-01 07:38:00,55.3,47.2,30.15,NNW,328,1.0,1.0,74,0.00,,,0.00,165,Wunderground v.1.15,2013-06-01 14:38:00,
2013-06-01 07:48:00,55.6,47.4,30.15,WNW,301,0.0,1.0,74,0.00,,,0.00,121,Wunderground v.1.15,2013-06-01 14:48:00,
2013-06-01 07:58:00,55.7,47.5,30.15,WNW,301,0.0,0.0,74,0.00,,,0.00,148,Wunderground v.1.15,2013-06-01 14:58:00,
2013-06-01 08:08:00,56.0,47.1,30.15,WNW,302,0.0,1.0,72,0.00,,,0.00,169,Wunderground v.1.15,2013-06-01 15:08:00,
2013-06-01 08:18:00,56.3,47.4,30.14,WNW,302,0.0,0.0,72,0.00,,,0.00,134,Wunderground v.1.15,2013-06-01 15:18:00,
2013-06-01 08:28:00,56.9,47.6,30.14,WNW,301,0.0,0.0,71,0.00,,,0.00,209,Wunderground v.1.15,2013-06-01 15:28:00,
2013-06-01 08:43:00,57.3,47.6,30.15,WNW,302,1.0,2.0,70,0.00,,,0.00,442,Wunderground v.1.15,2013-06-01 15:43:00,
2013-06-01 08:48:00,57.3,48.0,30.14,WNW,302,1.0,2.0,71,0.00,,,0.00,320,Wunderground v.1.15,2013-06-01 15:48:00,
2013-06-01 08:59:00,59.2,48.2,30.14,NW,304,0.0,1.0,67,0.00,,,0.00,310,Wunderground v.1.15,2013-06-01 15:59:00,
2013-06-01 09:09:00,59.3,48.3,30.14,WNW,289,1.0,1.0,67,0.00,,,0.00,246,Wunderground v.1.15,2013-06-01 16:09:00,
2013-06-01 09:23:00,60.5,48.3,30.14,WNW,289,0.0,0.0,64,0.00,,,0.00,308,Wunderground v.1.15,2013-06-01 16:23:00,
2013-06-01 09:29:00,60.9,48.6,30.14,WNW,291,0.0,0.0,64,0.00,,,0.00,570,Wunderground v.1.15,2013-06-01 16:29:00,
2013-06-01 09:38:00,61.3,49.0,30.13,WNW,291,0.0,0.0,64,0.00,,,0.00,494,Wunderground v.1.15,2013-06-01 16:38:00,
2013-06-01 09:47:00,61.3,48.2,30.13,WNW,287,1.0,2.0,62,0.00,,,0.00,684,Wunderground v.1.15,2013-06-01 16:47:00,
2013-06-01 09:58:00,60.5,48.3,30.13,WNW,302,2.0,2.0,64,0.00,,,0.00,633,Wunderground v.1.15,2013-06-01 16:58:00,
2013-06-01 10:08:00,61.8,49.1,30.12,WNW,294,1.0,2.0,63,0.00,,,0.00,720,Wunderground v.1.15,2013-06-01 17:08:00,
2013-06-01 10:18:00,62.6,47.6,30.12,West,280,1.0,2.0,58,0.00,,,0.00,743,Wunderground v.1.15,2013-06-01 17:18:00,
2013-06-01 10:28:00,64.3,46.8,30.12,West,278,1.0,1.0,53,0.00,,,0.00,767,Wunderground v.1.15,2013-06-01 17:28:00,
2013-06-01 10:38:00,63.7,45.7,30.11,SSW,198,2.0,5.0,52,0.00,,,0.00,760,Wunderground v.1.15,2013-06-01 17:38:00,
2013-06-01 10:53:00,66.1,46.4,30.11,SSW,199,1.0,1.0,49,0.00,,,0.00,815,Wunderground v.1.15,2013-06-01 17:53:00,
2013-06-01 11:03:00,67.3,44.6,30.10,South,191,1.0,1.0,44,0.00,,,0.00,866,Wunderground v.1.15,2013-06-01 18:03:00,
2013-06-01 11:08:00,66.0,45.2,30.10,West,275,2.0,2.0,47,0.00,,,0.00,899,Wunderground v.1.15,2013-06-01 18:08:00,
2013-06-01 11:18:00,66.3,44.9,30.11,WSW,250,1.0,2.0,46,0.00,,,0.00,296,Wunderground v.1.15,2013-06-01 18:18:00,
2013-06-01 11:28:00,66.4,46.1,30.11,West,263,1.0,2.0,48,0.00,,,0.00,906,Wunderground v.1.15,2013-06-01 18:28:00,
2013-06-01 11:38:00,67.1,45.6,30.10,SW,229,1.0,4.0,46,0.00,,,0.00,1151,Wunderground v.1.15,2013-06-01 18:38:00,
2013-06-01 11:48:00,67.8,45.1,30.10,SSW,196,2.0,2.0,44,0.00,,,0.00,310,Wunderground v.1.15,2013-06-01 18:48:00,
2013-06-01 11:58:00,67.1,45.6,30.10,SSW,198,2.0,5.0,46,0.00,,,0.00,301,Wunderground v.1.15,2013-06-01 18:58:00,
2013-06-01 12:08:00,68.6,44.6,30.10,South,189,1.0,10.0,42,0.00,,,0.00,896,Wunderground v.1.15,2013-06-01 19:08:00,
2013-06-01 12:19:00,66.9,43.0,30.09,SSW,199,3.0,6.0,42,0.00,,,0.00,431,Wunderground v.1.15,2013-06-01 19:19:00,
2013-06-01 12:29:00,67.4,42.9,30.09,South,188,2.0,6.0,41,0.00,,,0.00,813,Wunderground v.1.15,2013-06-01 19:29:00,
2013-06-01 12:38:00,67.9,44.0,30.09,SSW,202,2.0,6.0,42,0.00,,,0.00,429,Wunderground v.1.15,2013-06-01 19:38:00,
2013-06-01 12:48:00,67.8,45.1,30.09,WSW,241,2.0,2.0,44,0.00,,,0.00,655,Wunderground v.1.15,2013-06-01 19:48:00,
2013-06-01 12:58:00,68.9,44.9,30.09,SW,229,0.0,2.0,42,0.00,,,0.00,459,Wunderground v.1.15,2013-06-01 19:58:00,
2013-06-01 13:08:00,68.1,42.2,30.08,SSW,205,2.0,5.0,39,0.00,,,0.00,1177,Wunderground v.1.15,2013-06-01 20:08:00,
2013-06-01 13:18:00,68.3,43.0,30.08,SW,224,2.0,3.0,40,0.00,,,0.00,640,Wunderground v.1.15,2013-06-01 20:18:00,
2013-06-01 13:28:00,68.6,42.0,30.08,SSW,205,1.0,3.0,38,0.00,,,0.00,841,Wunderground v.1.15,2013-06-01 20:28:00,
2013-06-01 13:38:00,68.8,41.5,30.07,SSW,206,1.0,1.0,37,0.00,,,0.00,961,Wunderground v.1.15,2013-06-01 20:38:00,
2013-06-01 13:48:00,69.8,43.0,30.07,SW,236,1.0,1.0,38,0.00,,,0.00,926,Wunderground v.1.15,2013-06-01 20:48:00,
2013-06-01 13:58:00,70.8,42.5,30.07,SSW,208,1.0,3.0,36,0.00,,,0.00,917,Wunderground v.1.15,2013-06-01 20:58:00,
2013-06-01 14:08:00,70.6,41.6,30.07,South,191,2.0,2.0,35,0.00,,,0.00,908,Wunderground v.1.15,2013-06-01 21:08:00,
2013-06-01 14:18:00,70.9,44.0,30.07,SSE,168,1.0,3.0,38,0.00,,,0.00,892,Wunderground v.1.15,2013-06-01 21:18:00,
2013-06-01 14:28:00,70.6,44.4,30.07,South,189,3.0,3.0,39,0.00,,,0.00,904,Wunderground v.1.15,2013-06-01 21:28:00,
2013-06-01 14:38:00,71.3,42.2,30.06,SSW,192,2.0,4.0,35,0.00,,,0.00,165,Wunderground v.1.15,2013-06-01 21:38:00,
2013-06-01 14:49:00,71.3,43.0,30.06,SSW,200,1.0,4.0,36,0.00,,,0.00,941,Wunderground v.1.15,2013-06-01 21:49:00,
2013-06-01 14:58:00,70.6,41.6,30.06,SW,216,1.0,6.0,35,0.00,,,0.00,304,Wunderground v.1.15,2013-06-01 21:58:00,
2013-06-01 15:09:00,69.6,42.2,30.06,SW,216,1.0,2.0,37,0.00,,,0.00,343,Wunderground v.1.15,2013-06-01 22:09:00,
2013-06-01 15:19:00,70.1,44.6,30.05,WSW,256,1.0,2.0,40,0.00,,,0.00,827,Wunderground v.1.15,2013-06-01 22:19:00,
2013-06-01 15:29:00,70.6,45.7,30.05,West,280,3.0,6.0,41,0.00,,,0.00,684,Wunderground v.1.15,2013-06-01 22:29:00,
2013-06-01 15:42:00,69.6,45.5,30.05,NW,315,3.0,4.0,42,0.00,,,0.00,706,Wunderground v.1.15,2013-06-01 22:42:00,
2013-06-01 15:48:00,69.4,45.3,30.04,WNW,292,4.0,4.0,42,0.00,,,0.00,443,Wunderground v.1.15,2013-06-01 22:48:00,
2013-06-01 15:58:00,68.3,44.9,30.04,WNW,296,4.0,7.0,43,0.00,,,0.00,361,Wunderground v.1.15,2013-06-01 22:58:00,
2013-06-01 16:08:00,67.8,46.3,30.04,West,271,6.0,8.0,46,0.00,,,0.00,787,Wunderground v.1.15,2013-06-01 23:08:00,
2013-06-01 16:18:00,68.3,46.1,30.04,NW,306,6.0,6.0,45,0.00,,,0.00,774,Wunderground v.1.15,2013-06-01 23:18:00,
2013-06-01 16:28:00,68.4,46.2,30.04,NW,309,6.0,6.0,45,0.00,,,0.00,734,Wunderground v.1.15,2013-06-01 23:28:00,
2013-06-01 16:38:00,69.3,46.4,30.03,WNW,296,5.0,8.0,44,0.00,,,0.00,640,Wunderground v.1.15,2013-06-01 23:38:00,
2013-06-01 16:48:00,68.1,47.1,30.03,WNW,294,7.0,10.0,47,0.00,,,0.00,632,Wunderground v.1.15,2013-06-01 23:48:00,
2013-06-01 16:58:00,66.1,47.4,30.03,North,354,8.0,8.0,51,0.00,,,0.00,137,Wunderground v.1.15,2013-06-01 23:58:00,
2013-06-01 17:08:00,65.0,47.4,30.03,WNW,298,9.0,9.0,53,0.00,,,0.00,183,Wunderground v.1.15,2013-06-02 00:08:00,
2013-06-01 17:19:00,64.0,47.5,30.03,West,268,6.0,7.0,55,0.00,,,0.00,114,Wunderground v.1.15,2013-06-02 00:19:00,
2013-06-01 17:28:00,62.9,47.0,30.03,NW,316,7.0,7.0,56,0.00,,,0.00,148,Wunderground v.1.15,2013-06-02 00:28:00,
2013-06-01 17:43:00,62.1,47.1,30.03,NW,323,7.0,11.0,58,0.00,,,0.00,144,Wunderground v.1.15,2013-06-02 00:43:00,
2013-06-01 17:48:00,62.1,47.1,30.03,NNW,336,7.0,11.0,58,0.00,,,0.00,134,Wunderground v.1.15,2013-06-02 00:48:00,
2013-06-01 18:03:00,62.1,47.6,30.02,NW,326,5.0,5.0,59,0.00,,,0.00,132,Wunderground v.1.15,2013-06-02 01:03:00,
2013-06-01 18:09:00,62.0,47.5,30.02,NNW,336,6.0,12.0,59,0.00,,,0.00,123,Wunderground v.1.15,2013-06-02 01:09:00,
2013-06-01 18:19:00,62.3,47.8,30.02,NW,320,5.0,7.0,59,0.00,,,0.00,179,Wunderground v.1.15,2013-06-02 01:19:00,
2013-06-01 18:33:00,63.1,47.1,30.01,NNW,333,6.0,6.0,56,0.00,,,0.00,431,Wunderground v.1.15,2013-06-02 01:33:00,
2013-06-01 18:42:00,63.4,47.4,30.01,NNW,346,5.0,5.0,56,0.00,,,0.00,208,Wunderground v.1.15,2013-06-02 01:42:00,
2013-06-01 18:48:00,63.5,47.5,30.01,NW,320,5.0,5.0,56,0.00,,,0.00,169,Wunderground v.1.15,2013-06-02 01:48:00,
2013-06-01 18:58:00,63.2,46.3,30.01,NNW,342,5.0,9.0,54,0.00,,,0.00,190,Wunderground v.1.15,2013-06-02 01:58:00,
2013-06-01 19:08:00,62.3,45.9,30.01,NNW,347,4.0,13.0,55,0.00,,,0.00,62,Wunderground v.1.15,2013-06-02 02:08:00,
2013-06-01 19:22:00,61.2,45.4,30.01,NNW,329,4.0,6.0,56,0.00,,,0.00,49,Wunderground v.1.15,2013-06-02 02:22:00,
2013-06-01 19:28:00,61.2,44.9,30.01,North,359,4.0,6.0,55,0.00,,,0.00,165,Wunderground v.1.15,2013-06-02 02:28:00,
2013-06-01 19:38:00,61.0,44.2,30.01,NNW,328,4.0,6.0,54,0.00,,,0.00,55,Wunderground v.1.15,2013-06-02 02:38:00,
2013-06-01 19:52:00,61.3,44.0,30.00,North,359,4.0,6.0,53,0.00,,,0.00,49,Wunderground v.1.15,2013-06-02 02:52:00,
2013-06-01 19:58:00,60.7,44.9,30.00,North,359,4.0,6.0,56,0.00,,,0.00,44,Wunderground v.1.15,2013-06-02 02:58:00,
2013-06-01 20:08:00,60.1,46.2,30.00,NW,308,5.0,6.0,60,0.00,,,0.00,39,Wunderground v.1.15,2013-06-02 03:08:00,
2013-06-01 20:18:00,59.5,46.5,30.00,WNW,289,4.0,6.0,62,0.00,,,0.00,25,Wunderground v.1.15,2013-06-02 03:18:00,
2013-06-01 20:28:00,59.0,46.0,30.00,NW,325,4.0,4.0,62,0.00,,,0.00,18,Wunderground v.1.15,2013-06-02 03:28:00,
2013-06-01 20:38:00,58.9,45.5,30.00,NNW,343,5.0,5.0,61,0.00,,,0.00,12,Wunderground v.1.15,2013-06-02 03:38:00,
2013-06-01 20:48:00,58.7,44.8,30.00,NNW,339,5.0,5.0,60,0.00,,,0.00,9,Wunderground v.1.15,2013-06-02 03:48:00,
2013-06-01 20:59:00,58.7,44.8,30.00,NNW,343,6.0,7.0,60,0.00,,,0.00,7,Wunderground v.1.15,2013-06-02 03:59:00,
2013-06-01 21:03:00,58.7,44.8,30.00,WNW,301,5.0,5.0,60,0.00,,,0.00,5,Wunderground v.1.15,2013-06-02 04:03:00,
2013-06-01 21:08:00,58.6,44.8,30.00,NNW,332,5.0,5.0,60,0.00,,,0.00,0,Wunderground v.1.15,2013-06-02 04:08:00,
2013-06-01 21:23:00,58.4,43.7,30.00,NNW,347,4.0,10.0,58,0.00,,,0.00,0,Wunderground v.1.15,2013-06-02 04:23:00,
2013-06-01 21:29:00,58.6,43.9,30.00,NNW,347,4.0,10.0,58,0.00,,,0.00,0,Wunderground v.1.15,2013-06-02 04:29:00,
2013-06-01 21:42:00,58.6,43.9,30.00,NNW,346,3.0,7.0,58,0.00,,,0.00,0,Wunderground v.1.15,2013-06-02 04:42:00,
2013-06-01 21:48:00,58.7,44.0,30.01,NW,323,4.0,7.0,58,0.00,,,0.00,0,Wunderground v.1.15,2013-06-02 04:48:00,
2013-06-01 21:52:00,58.7,43.5,30.01,NNW,344,4.0,4.0,57,0.00,,,0.00,0,Wunderground v.1.15,2013-06-02 04:52:00,
2013-06-01 21:57:00,58.7,43.5,30.01,North,349,3.0,7.0,57,0.00,,,0.00,0,Wunderground v.1.15,2013-06-02 04:57:00,
2013-06-01 22:08:00,58.7,44.0,30.01,NW,315,3.0,3.0,58,0.00,,,0.00,0,Wunderground v.1.15,2013-06-02 05:08:00,
2013-06-01 22:18:00,58.6,43.9,30.01,NW,318,3.0,5.0,58,0.00,,,0.00,0,Wunderground v.1.15,2013-06-02 05:18:00,
2013-06-01 22:32:00,58.6,44.3,30.01,WNW,295,3.0,5.0,59,0.00,,,0.00,0,Wunderground v.1.15,2013-06-02 05:32:00,
2013-06-01 22:38:00,58.6,44.3,30.01,NW,325,3.0,5.0,59,0.00,,,0.00,0,Wunderground v.1.15,2013-06-02 05:38:00,
2013-06-01 22:48:00,58.6,44.3,30.00,NW,320,3.0,3.0,59,0.00,,,0.00,0,Wunderground v.1.15,2013-06-02 05:48:00,
2013-06-01 22:58:00,58.7,44.8,30.00,NNW,332,2.0,3.0,60,0.00,,,0.00,0,Wunderground v.1.15,2013-06-02 05:58:00,
2013-06-01 23:12:00,58.7,44.8,30.00,NW,305,3.0,3.0,60,0.00,,,0.00,0,Wunderground v.1.15,2013-06-02 06:12:00,
2013-06-01 23:22:00,58.6,45.2,30.00,NW,305,2.0,2.0,61,0.00,,,0.00,0,Wunderground v.1.15,2013-06-02 06:22:00,
2013-06-01 23:28:00,58.6,45.2,30.00,NNW,342,1.0,2.0,61,0.00,,,0.00,0,Wunderground v.1.15,2013-06-02 06:28:00,
2013-06-01 23:38:00,58.4,45.0,30.00,NW,308,1.0,2.0,61,0.00,,,0.00,0,Wunderground v.1.15,2013-06-02 06:38:00,
2013-06-01 23:48:00,58.3,44.9,30.00,NW,309,1.0,1.0,61,0.00,,,0.00,0,Wunderground v.1.15,2013-06-02 06:48:00,